This is the latest recevied weather packets stored in our database for station/object KI5GCD-13. If no packets are shown the sender has not sent any weather packets the latest 10 day(s).
| Time | Temp. | Humidity | Pressure | Rain* | Wind** | Luminosity | Snow |
|---|---|---|---|---|---|---|---|
| 1777901987 | 18.89° C | 63% | 1006 hPa | 0 mm | 1.34 m/s, 223° | - | - |
| 1777901687 | 18.89° C | 63% | 1006.2 hPa | 0 mm | 1.34 m/s, 239° | - | - |
| 1777901387 | 18.33° C | 63% | 1005.9 hPa | 0 mm | 1.79 m/s, 213° | - | - |
| 1777901087 | 18.33° C | 64% | 1005.8 hPa | 0 mm | 2.24 m/s, 243° | - | - |
| 1777900787 | 17.78° C | 65% | 1006.3 hPa | 0 mm | 1.34 m/s, 182° | - | - |
| 1777900487 | 17.78° C | 65% | 1006.2 hPa | 0 mm | 0.89 m/s, 246° | - | - |
| 1777900187 | 17.78° C | 66% | 1006.2 hPa | 0 mm | 0.89 m/s, 180° | - | - |
| 1777899887 | 17.22° C | 67% | 1006.4 hPa | 0 mm | 0.89 m/s, 166° | - | - |
| 1777899587 | 17.22° C | 67% | 1006.2 hPa | 0 mm | 2.68 m/s, 228° | - | - |
| 1777899287 | 17.22° C | 67% | 1006.3 hPa | 0 mm | 0.89 m/s, 213° | - | - |
| 1777898987 | 16.67° C | 69% | 1006.2 hPa | 0 mm | 0.45 m/s, 209° | - | - |
| 1777898687 | 16.67° C | 68% | 1006.2 hPa | 0 mm | 1.79 m/s, 160° | - | - |
| 1777898387 | 16.11° C | 69% | 1006.3 hPa | 0 mm | 0.45 m/s, 232° | - | - |
| 1777898087 | 16.11° C | 68% | 1005.9 hPa | 0 mm | 2.24 m/s, 267° | - | - |
| 1777897787 | 16.11° C | 69% | 1006.2 hPa | 0 mm | 1.34 m/s, 174° | - | - |
| 1777897487 | 16.11° C | 70% | 1006.3 hPa | 0 mm | 0.45 m/s, 227° | - | - |
| 1777897187 | 16.11° C | 69% | 1006.3 hPa | 0 mm | 0.89 m/s, 220° | - | - |
| 1777896887 | 16.11° C | 69% | 1006.7 hPa | 0 mm | 1.79 m/s, 215° | - | - |
| 1777896587 | 15.56° C | 71% | 1006.4 hPa | 0 mm | 0.89 m/s, 198° | - | - |
| 1777896287 | 15.56° C | 70% | 1006.3 hPa | 0 mm | 0 m/s | - | - |
| 1777895987 | 15.56° C | 70% | 1006.3 hPa | 0 mm | 0.45 m/s, 232° | - | - |
| 1777895687 | 15.56° C | 69% | 1006.3 hPa | 0 mm | 0.89 m/s, 250° | - | - |
| 1777895388 | 15.56° C | 69% | 1006.2 hPa | 0 mm | 3.13 m/s, 192° | - | - |
| 1777895087 | 15.56° C | 69% | 1006.2 hPa | 0 mm | 1.79 m/s, 245° | - | - |
| 1777894787 | 15.56° C | 69% | 1006 hPa | 0 mm | 0.45 m/s, 235° | - | - |
* Rain latest hour (hover to see other rain measurements)
** Current wind speed in m/s (hover to see current wind gust speed)